Skip Page Navigation
NASA JPL Caltech
NASA Logo - Jet Propulsion Laboratory + View the NASA Portal
+ Center for Near-Earth Object Studies
JPL Home Earth Solar System Stars & Galaxies Technology
JPL Solar System Dynamics
BODIES ORBITS EPHEMERIDES TOOLS PHYSICAL DATA DISCOVERY FAQ SITE MAP
IMPORTANT: The SSD Announcement email list is now available. Major changes are coming in the near future, including possible hostname and/or URL changes. To be notified of such changes, subscribe to this email list.

Please visit this page for more details.


JPL Small-Body Database Browser
Search: [ help ]  
2601 Bologna (1980 XA)
Classification: Main-belt Asteroid          SPK-ID: 2002601
Ephemeris | Orbit Diagram | Orbital Elements | Mission Design | Physical Parameters | Discovery Circumstances | Close-Approach Data ]

[ show orbit diagram ]
Orbital Elements at Epoch 2459000.5 (2020-May-31.0) TDB
Reference: JPL 37 (heliocentric ecliptic J2000)
 Element Value Uncertainty (1-sigma)   Units 
e .06471142807976552 3.7684e-08  
a 3.128367382193705 1.7591e-08 au
q 2.925926261333793 1.2026e-07 au
i 9.587028940120396 4.0873e-06 deg
node 288.1592165087625 2.4547e-05 deg
peri 193.2839544259858 3.9724e-05 deg
M 356.335588440477 3.0896e-05 deg
tp 2459021.072013194561
(2020-Jun-20.57201319)
0.00017347 TDB
period 2021.040658163941
5.53
1.7047e-05
4.667e-08
d
yr
n .1781260552803772 1.5024e-09 deg/d
Q 3.330808503053618 1.873e-08 au
  Orbit Determination Parameters
   # obs. used (total)      2329  
   data-arc span      20110 days (55.06 yr)  
   first obs. used      1965-01-11  
   last obs. used      2020-02-02  
   planetary ephem.      DE431  
   SB-pert. ephem.      SB431-N16  
   condition code      0  
   norm. resid. RMS      .41727  
   source      ORB  
   producer      Otto Matic  
   solution date      2020-Feb-22 16:26:09  

Additional Information
 Earth MOID = 1.9429 au 
 Jupiter MOID = 1.77675 au 
 T_jup = 3.189 
[ show covariance matrix ]

Ephemeris | Orbit Diagram | Orbital Elements | Mission Design | Physical Parameters | Discovery Circumstances | Close-Approach Data ]

Physical Parameter Table
Parameter Symbol Value Units Sigma Reference Notes
absolute magnitude H 11.4   n/a MPO324330  
diameter diameter 12.172 km 0.165 urn:nasa:pds:neowise_diameters_albedos::2.0[mainbelt] (http://adsabs.harvard.edu/abs/2014ApJ...791..121M)  
geometric albedo albedo 0.360   0.073 urn:nasa:pds:neowise_diameters_albedos::2.0[mainbelt] (http://adsabs.harvard.edu/abs/2014ApJ...791..121M)  

2601 Bologna (1980 XA)          Discovered 1980-Dec-08 by Osservatorio San Vittore at Bologna
Reference: DISCOVERY.DBLast Updated: 2003-08-29

[ show close-approach data ]
Alternate Designations
 1980 XA = 1965 AC1 = 1971 DD1 
Ephemeris | Orbit Diagram | Orbital Elements | Mission Design | Physical Parameters | Discovery Circumstances | Close-Approach Data ]
ABOUT SSD CREDITS/AWARDS PRIVACY/COPYRIGHT GLOSSARY LINKS
FirstGov 2020-Mar-29 23:15 UT
(server date/time)  
NASA Home Page
Site Manager:   Ryan S. Park
Webmaster  Alan B. Chamberlin